FENGYUN 1C DEB, 32242

Orbit data source: Space-Track

FENGYUN 1C DEB, 32242 is space debris in SSO originally from a launch on Mon, 10 May 1999 UTC launched from the Taiyaun Space Center, China (TSC). Fengyun 1C debris stems from the Chinese weather satellite Fengyun-1C, which was intentionally destroyed by a Chinese anti-satellite missile in 2007. This event dramatically increased the amount of space debris, with thousands of trackable fragments posing hazards to satellites and human spaceflight. The Fengyun 1C debris cloud has become a focal point in discussions about space sustainability and the need for international regulations to prevent the creation of new debris.

Loading next visibility...
Identifier
32242, 1999-025CWQ
Orbit
SSO
Country
Flag of CNCN / PRC
Related business
Manufacturer
Unknown
Mission
Spacecraft
Bus & Motor
Unknown
Mass
Unknown
Launch date (UTC)
1999-05-10 (27 years ago)
Launch vehicle
Unknown
Launch site
Taiyaun Space Center, China (TSC)
Object type
Payload
Rocket body
Debris
Shape & HBR
Unknown shape, 0.1 m
Radar Cross Section
Small (<0.1 m²)

Expand to show TLE details & history
Last TLE update: 1 week ago

TLE from 1 week ago
0 FENGYUN 1C DEB
1 32242U 99025CWQ 26156.42020105  .00001411  00000-0  11342-2 0  9992
2 32242  97.2678  32.1150 0159028 186.5037 173.4063 13.85954550653419
Epoch: 2026-06-05T10:05Z
TLE epoch observation values (Epoch: 2026-06-05T10:05:05.370Z)
Latitude
0.00001°
Longitude
-13.00775°
Altitude
1,061.453 km
Speed
7.263 km/s
True Right ascension
02h 08m 27s
True Declination
0° 00' 00"
Sunlit
Object was in daylight at epoch
Visualization orbit readout
Latitude
Unknown
Longitude
Unknown
Altitude
Unknown
Speed
Unknown
Apparent Right ascension
Unknown
Apparent Declination
Unknown
Sunlit
N/A
Visualization observer readout
Local Sidereal Time
12:57:58
Azimuth
Unknown
Elevation
Unknown
Doppler factor
Unknown
Orbital elements
Apogee altitude
1,056.362 km
Perigee altitude
823.605 km
Semi-major axis
7,318.12 km
Eccentricity
0.0159
Inclination
97.2678°
RAAN
32.115°
Arg. of periapsis
186.5037°
True anomaly
173.6115°
Mean anomaly
173.4063°
Eccentric anomaly
173.5093°
Mean motion
3.46692 °/min
Orbital period
103.84 mins
BSTAR
0.0011342
Loading maneuver chart data...
Computing Atmospheric mass density...
Loading historical data...
Loading historical data...
Loading historical data...
Loading historical data...
Loading historical data...
Loading historical data...
Loading historical data...

Documentation

Showing up to 5 results
|